This demonstration page uses our WeatherBlox Daily Observations layout. Learn more.

Left ArrowRight Arrow

Hourly Observations for December 6, 2015

Temp ( °F °C ) Dew Point ( °F °C ) Humidity (%) Winds ( mph kmh ) Pressure ( in mb ) Visibility ( mi km ) Precip ( " mm )
12:51 am 00:51 Clear 38 3.3 18 -7.8 44 44 SSE 3 6 30.35 1028 10 16 N/A
1:51 am 01:51 Clear 36 2.2 18 -7.8 48 48 E 6 9 30.37 1029 10 16 N/A
2:51 am 02:51 Clear 41 5 18 -7.8 39 39 SE 12 19 30.35 1028 10 16 N/A
3:51 am 03:51 Clear 46 7.8 14 -10 27 27 SE 15 24 30.34 1027 10 16 N/A
4:51 am 04:51 Clear 45 7.2 15 -9.4 30 30 SE 12 19 30.35 1028 10 16 N/A
5:51 am 05:51 Clear 44 6.7 14 -10 30 30 SE 13 20 30.38 1029 10 16 N/A
6:51 am 06:51 Clear 44 6.7 13 -10.6 28 28 SE 13 20 30.41 1030 10 16 N/A
7:51 am 07:51 Sunny 47 8.3 13 -10.6 25 25 ESE 14 22 30.43 1031 10 16 N/A
8:51 am 08:51 Sunny 50 10 14 -10 24 24 SE 16 26 30.44 1031 10 16 N/A
9:51 am 09:51 Sunny 54 12.2 16 -8.9 22 22 ESE 14 22 30.45 1031 10 16 N/A
10:51 am 10:51 Sunny 59 15 19 -7.2 21 21 ESE 10 17 30.43 1031 10 16 N/A
11:51 am 11:51 Sunny 63 17.2 18 -7.8 17 17 ESE 10 17 30.39 1029 10 16 N/A
12:51 pm 12:51 Sunny 66 18.9 18 -7.8 16 16 S 10 17 30.33 1027 10 16 N/A
1:51 pm 13:51 Sunny 67 19.4 17 -8.3 15 15 S 8 13 30.29 1026 10 16 N/A
2:51 pm 14:51 Sunny 69 20.6 17 -8.3 14 14 SSE 9 15 30.26 1025 10 16 N/A
3:51 pm 15:51 Sunny 69 20.6 16 -8.9 13 13 SE 10 17 30.23 1024 10 16 N/A
4:51 pm 16:51 Sunny 65 18.3 16 -8.9 15 15 SE 6 9 30.24 1024 10 16 N/A
5:51 pm 17:51 Clear 56 13.3 16 -8.9 21 21 ESE 8 13 30.26 1025 10 16 N/A
6:51 pm 18:51 Clear 57 13.9 17 -8.3 21 21 E 9 15 30.26 1025 10 16 N/A
7:51 pm 19:51 Clear 55 12.8 18 -7.8 23 23 E 10 17 30.27 1025 10 16 N/A
8:51 pm 20:51 Clear 51 10.6 19 -7.2 28 28 SSE 9 15 30.28 1026 10 16 N/A
9:51 pm 21:51 Clear 50 10 19 -7.2 29 29 ESE 7 11 30.29 1026 10 16 N/A
10:51 pm 22:51 Clear 47 8.3 19 -7.2 33 33 ESE 8 13 30.29 1026 10 16 N/A
11:51 pm 23:51 Clear 51 10.6 20 -6.7 29 29 SE 9 15 30.27 1025 10 16 N/A

Powered by AerisWeather